TINTIN A

Last updated on Sun Aug 30 2020 05:40:12 GMT+0000 (Coordinated Universal Time)

1 43216U 18020B 20242.31950788 .26379725 25650-5 16505-2 0 9991 2 43216 97.4245 260.1382 0015282 265.4670 95.5903 16.40201759140202

Satellite not in orbit